Farmville, VA

2:19 AM EDT on June 24, 2017 (GMT -0400)
Farmville Regional

Weather History for KFVX - September, 2013

Change the Weather History Date:

Sunday, September 8, 2013

  Actual Average Record
Temperature  
Mean Temperature 73 °F -  
Max Temperature 89 °F 84 °F 97 °F (1939)
Min Temperature 57 °F 58 °F 41 °F (1962)
Cooling Degree Days 8    
Growing Degree Days 23 (Base 50)    
Moisture  
Dew Point 60 °F    
Average Humidity 68    
Maximum Humidity 100    
Minimum Humidity 25    
Precipitation  
Precipitation 0.00 in - - ()
Sea Level Pressure  
Sea Level Pressure 29.93 in    
Wind  
Wind Speed 0 mph (SE)    
Max Wind Speed 6 mph    
Max Gust Speed -    
Visibility 8 miles    
Events Fog    
Averages and records for this station are not official NWS values.
T = Trace of Precipitation, MM = Missing Value Source: NWS Daily Summary

Daily Weather History Graph

Daily Weather History Graph

Search for Another Location

Airport or City:

Trip Planner

Search our weather history database for the weather conditions in past years. The results will help you decide how hot, cold, wet, or windy it might be!

Date:

Astronomy

Sep. 08, 2013 Rise Set
Actual Time 6:50 AM EDT 7:31 PM EDT
Civil Twilight 6:23 AM EDT 7:58 PM EDT
Nautical Twilight 5:52 AM EDT 8:29 PM EDT
Astronomical Twilight 5:20 AM EDT 9:01 PM EDT
Moon 10:00 AM EDT (9/8) 9:11 PM EDT (9/8)
Length of Visible Light 13h 34m
Length of Day
12h 41m
Waxing Crescent, 11% of the Moon is Illuminated
Sep 8
Waxing Crescent
Sep 12
First Quarter
Sep 19
Full
Sep 26
Last Quarter
Oct 4
New

Hourly Weather History & Observations

Time (EDT) Temp. Heat Index Dew Point Humidity Pressure Visibility Wind Dir Wind Speed Gust Speed Precip Events Conditions
12:15 AM 62.6 °F - 60.8 °F 94% 29.95 in 3.0 mi Calm Calm - N/A   Clear
12:35 AM 62.6 °F - 62.6 °F 100% 29.95 in 7.0 mi Calm Calm - N/A   Clear
12:55 AM 64.4 °F - 64.4 °F 100% 29.95 in 7.0 mi Calm Calm - N/A   Clear
1:15 AM 62.6 °F - 62.6 °F 100% 29.95 in 4.0 mi Calm Calm - N/A   Clear
1:35 AM 62.6 °F - 62.6 °F 100% 29.95 in 7.0 mi Calm Calm - N/A   Clear
1:55 AM 62.6 °F - 60.8 °F 94% 29.94 in 0.5 mi Calm Calm - N/A Fog Fog
2:15 AM 62.6 °F - 62.6 °F 100% 29.94 in 7.0 mi Calm Calm - N/A   Clear
2:35 AM 60.8 °F - 60.8 °F 100% 29.94 in 0.5 mi Calm Calm - N/A Fog Fog
2:55 AM 60.8 °F - 60.8 °F 100% 29.94 in 2.0 mi Calm Calm - N/A   Mostly Cloudy
3:15 AM 60.8 °F - 60.8 °F 100% 29.93 in 0.8 mi Calm Calm - N/A   Mostly Cloudy
3:35 AM 60.8 °F - 60.8 °F 100% 29.93 in 0.5 mi Calm Calm - N/A Fog Fog
3:55 AM 62.6 °F - 60.8 °F 94% 29.93 in 5.0 mi Calm Calm - N/A   Clear
4:15 AM 59.0 °F - 57.2 °F 94% 29.93 in 0.8 mi Calm Calm - N/A   Mostly Cloudy
4:35 AM 59.0 °F - 57.2 °F 94% 29.93 in 1.0 mi Calm Calm - N/A   Mostly Cloudy
4:55 AM 57.2 °F - 57.2 °F 100% 29.93 in 0.2 mi Calm Calm - N/A Fog Fog
5:15 AM 57.2 °F - 57.2 °F 100% 29.94 in 3.0 mi Calm Calm - N/A   Scattered Clouds
5:35 AM 59.0 °F - 57.2 °F 94% 29.93 in 3.0 mi Calm Calm - N/A   Clear
5:55 AM 60.8 °F - 59.0 °F 94% 29.93 in 4.0 mi Calm Calm - N/A   Clear
6:15 AM 59.0 °F - 59.0 °F 100% 29.93 in 4.0 mi Calm Calm - N/A   Clear
6:35 AM 60.8 °F - 59.0 °F 94% 29.93 in 5.0 mi Calm Calm - N/A   Clear
6:55 AM 60.8 °F - 59.0 °F 94% 29.94 in 5.0 mi Calm Calm - N/A   Clear
7:15 AM 60.8 °F - 60.8 °F 100% 29.94 in 4.0 mi Calm Calm - N/A   Clear
7:55 AM 62.6 °F - 60.8 °F 94% 29.94 in 5.0 mi Calm Calm - N/A   Clear
8:15 AM 64.4 °F - 62.6 °F 94% 29.94 in 7.0 mi Calm Calm - N/A   Clear
8:35 AM 68.0 °F - 64.4 °F 88% 29.95 in 7.0 mi Calm Calm - N/A   Clear
8:55 AM 68.0 °F - 64.4 °F 88% 29.94 in 10.0 mi Calm Calm - N/A   Clear
9:15 AM 71.6 °F - 66.2 °F 83% 29.94 in 10.0 mi Calm Calm - N/A   Clear
9:35 AM 73.4 °F - 64.4 °F 73% 29.94 in 10.0 mi Calm Calm - N/A   Clear
9:55 AM 77.0 °F - 60.8 °F 57% 29.95 in 10.0 mi Calm Calm - N/A   Clear
10:15 AM 80.6 °F 80.8 °F 57.2 °F 45% 29.95 in 10.0 mi Calm Calm - N/A   Clear
10:35 AM 80.6 °F 80.5 °F 55.4 °F 42% 29.95 in 10.0 mi NE 4.6 mph - N/A   Clear
10:55 AM 80.6 °F 80.5 °F 55.4 °F 42% 29.95 in 10.0 mi Calm Calm - N/A   Clear
11:15 AM 82.4 °F - 51.8 °F 35% 29.94 in 10.0 mi Calm Calm - N/A   Clear
11:35 AM 82.4 °F - 48.2 °F 30% 29.94 in 10.0 mi Calm Calm - N/A   Clear
11:55 AM 86.0 °F - 48.2 °F 27% 29.94 in 10.0 mi Calm Calm - N/A   Clear
12:15 PM 87.8 °F - 48.2 °F 25% 29.93 in 10.0 mi East 3.5 mph - N/A   Clear
12:35 PM 86.0 °F - 51.8 °F 31% 29.93 in 10.0 mi NE 3.5 mph - N/A   Clear
12:55 PM 84.2 °F - 51.8 °F 33% 29.93 in 10.0 mi Calm Calm - N/A   Clear
1:15 PM 86.0 °F 84.2 °F 53.6 °F 33% 29.93 in 10.0 mi East 3.5 mph - N/A   Clear
1:35 PM 87.8 °F 85.7 °F 53.6 °F 31% 29.92 in 10.0 mi SE 3.5 mph - N/A   Clear
1:55 PM 87.8 °F 86.1 °F 55.4 °F 33% 29.92 in 10.0 mi Calm Calm - N/A   Clear
2:15 PM 89.6 °F 87.7 °F 55.4 °F 31% 29.92 in 10.0 mi Calm Calm - N/A   Clear
2:35 PM 89.6 °F 87.7 °F 55.4 °F 31% 29.91 in 10.0 mi Calm Calm - N/A   Clear
2:55 PM 89.6 °F 88.1 °F 57.2 °F 33% 29.91 in 10.0 mi South 5.8 mph - N/A   Clear
3:15 PM 87.8 °F 86.1 °F 55.4 °F 33% 29.90 in 10.0 mi SW 4.6 mph - N/A   Clear
3:35 PM 87.8 °F 86.5 °F 57.2 °F 35% 29.90 in 10.0 mi Calm Calm - N/A   Clear
3:55 PM 87.8 °F 86.5 °F 57.2 °F 35% 29.90 in 10.0 mi Calm Calm - N/A   Scattered Clouds
4:15 PM 89.6 °F 87.7 °F 55.4 °F 31% 29.90 in 10.0 mi Calm Calm - N/A   Clear
4:35 PM 89.6 °F 88.1 °F 57.2 °F 33% 29.90 in 10.0 mi South 3.5 mph - N/A   Clear
4:55 PM 87.8 °F 86.1 °F 55.4 °F 33% 29.89 in 10.0 mi Calm Calm - N/A   Clear
5:15 PM 87.8 °F 86.5 °F 57.2 °F 35% 29.89 in 10.0 mi Calm Calm - N/A   Clear
5:35 PM 87.8 °F 86.5 °F 57.2 °F 35% 29.90 in 10.0 mi South 3.5 mph - N/A   Clear
5:55 PM 87.8 °F 87.1 °F 59.0 °F 38% 29.90 in 10.0 mi Calm Calm - N/A   Clear
6:15 PM 86.0 °F 86.6 °F 62.6 °F 45% 29.90 in 10.0 mi SSW 3.5 mph - N/A   Clear
6:35 PM 84.2 °F 85.6 °F 64.4 °F 51% 29.90 in 10.0 mi Calm Calm - N/A   Clear
6:55 PM 82.4 °F 83.9 °F 64.4 °F 54% 29.91 in 10.0 mi Calm Calm - N/A   Clear
7:15 PM 80.6 °F 82.3 °F 64.4 °F 58% 29.91 in 10.0 mi SW 3.5 mph - N/A   Clear
7:35 PM 78.8 °F - 64.4 °F 61% 29.91 in 10.0 mi Calm Calm - N/A   Clear
7:55 PM 78.8 °F - 62.6 °F 57% 29.92 in 10.0 mi Calm Calm - N/A   Clear
8:15 PM 77.0 °F - 64.4 °F 65% 29.93 in 10.0 mi Calm Calm - N/A   Clear
8:35 PM 75.2 °F - 64.4 °F 69% 29.93 in 10.0 mi Calm Calm - N/A   Clear
8:55 PM 75.2 °F - 64.4 °F 69% 29.94 in 10.0 mi Calm Calm - N/A   Clear
9:15 PM 75.2 °F - 66.2 °F 73% 29.94 in 10.0 mi Calm Calm - N/A   Scattered Clouds
9:35 PM 73.4 °F - 69.8 °F 88% 29.95 in 10.0 mi Calm Calm - N/A   Mostly Cloudy
9:55 PM 73.4 °F - 69.8 °F 88% 29.97 in 10.0 mi Calm Calm - N/A   Overcast
10:15 PM 73.4 °F - 69.8 °F 88% 29.97 in 10.0 mi Calm Calm - N/A   Scattered Clouds
10:35 PM 73.4 °F - 69.8 °F 88% 29.98 in 10.0 mi Calm Calm - N/A   Scattered Clouds
10:55 PM 73.4 °F - 69.8 °F 88% 29.99 in 10.0 mi NNE 3.5 mph - N/A   Overcast
11:15 PM 73.4 °F - 69.8 °F 88% 30.00 in 10.0 mi Calm Calm - N/A   Overcast
11:35 PM 73.4 °F - 71.6 °F 94% 29.99 in 10.0 mi Calm Calm - N/A   Overcast
11:55 PM 73.4 °F - 69.8 °F 88% 30.00 in 10.0 mi North 3.5 mph - N/A   Overcast